Weather History for Newport Airport, OR

Change the Weather History Date:

Thursday, September 18, 2014

  Actual Average Record
Temperature  
Mean Temperature 60 °F -  
Max Temperature 66 °F 61 °F 68 °F (1997)
Min Temperature 53 °F 49 °F 46 °F (2005)
Degree Days  
Heating Degree Days 6    
Growing Degree Days 10 (Base 50)    
Moisture  
Dew Point 57 °F    
Average Humidity 91    
Maximum Humidity 100    
Minimum Humidity 73    
Precipitation  
Precipitation 0.04 in - - ()
Sea Level Pressure  
Sea Level Pressure 29.90 in    
Wind  
Wind Speed 3 mph (NNW)    
Max Wind Speed 9 mph    
Max Gust Speed -    
Visibility 8 miles    
Events Rain    
Averages and records for this station are not official NWS values.
T = Trace of Precipitation, MM = Missing Value Source: NWS Daily Summary

Daily Weather History Graph

Daily Weather History Graph

Search for Another Location

Airport:

Trip Planner

Search our weather history database for the weather conditions in past years. The results will help you decide how hot, cold, wet, or windy it might be!

Date:

Astronomy

Sep. 18, 2014 Rise Set
Actual Time 6:58 AM PDT 7:21 PM PDT
Civil Twilight 6:29 AM PDT 7:50 PM PDT
Nautical Twilight 5:55 AM PDT 8:24 PM PDT
Astronomical Twilight 5:19 AM PDT 8:59 PM PDT
Moon 1:46 AM PDT (9/18) 4:24 PM PDT (9/18)
Length of Visible Light 13h 20m
Length of Day
12h 22m
Waning Crescent, 25% of the Moon is Illuminated
Sep 18
Waning Crescent
Sep 23
New
Oct 1
First Quarter
Oct 8
Full
Oct 15
Last Quarter

Hourly Weather History & Observations

Time (PDT) Temp. Dew Point Humidity Pressure Visibility Wind Dir Wind Speed Gust Speed Precip Events Conditions
12:15 AM 57.2 °F 55.4 °F 94% 29.80 in 7.0 mi Calm Calm - 0.01 in Rain Light Rain
12:35 AM 57.2 °F 55.4 °F 94% 29.79 in 7.0 mi Calm Calm - 0.01 in Rain Light Rain
1:15 AM 57.2 °F 55.4 °F 94% 29.79 in 7.0 mi East 5.8 mph - N/A   Overcast
1:35 AM 57.2 °F 55.4 °F 94% 29.79 in 7.0 mi ESE 4.6 mph - N/A Rain Light Rain
1:55 AM 57.2 °F 55.4 °F 94% 29.79 in 7.0 mi ESE 5.8 mph - 0.01 in Rain Light Rain
2:15 AM 57.2 °F 55.4 °F 94% 29.78 in 7.0 mi East 4.6 mph - N/A Rain Light Rain
2:35 AM 57.2 °F 55.4 °F 94% 29.78 in 7.0 mi Calm Calm - 0.01 in Rain Light Rain
2:55 AM 57.2 °F 55.4 °F 94% 29.78 in 7.0 mi East 4.6 mph - 0.02 in Rain Light Rain
3:15 AM 57.2 °F 57.2 °F 100% 29.78 in 7.0 mi East 3.5 mph - N/A Rain Rain
3:35 AM 57.2 °F 57.2 °F 100% 29.78 in 7.0 mi East 4.6 mph - N/A   Light Drizzle
3:55 AM 57.2 °F 57.2 °F 100% 29.78 in 10.0 mi Calm Calm - N/A   Overcast
4:15 AM 57.2 °F 57.2 °F 100% 29.78 in 7.0 mi Calm Calm - 0.01 in   Overcast
4:35 AM 57.2 °F 57.2 °F 100% 29.79 in 10.0 mi Calm Calm - 0.01 in   Overcast
4:55 AM 57.2 °F 57.2 °F 100% 29.79 in 7.0 mi Calm Calm - 0.01 in Rain Light Rain
5:15 AM 57.2 °F 55.4 °F 94% 29.79 in 7.0 mi Calm Calm - N/A   Light Drizzle
5:35 AM 57.2 °F 55.4 °F 94% 29.80 in 5.0 mi ENE 3.5 mph - N/A   Light Drizzle
5:55 AM 57.2 °F 55.4 °F 94% 29.80 in 7.0 mi Calm Calm - N/A   Overcast
6:15 AM 57.2 °F 55.4 °F 94% 29.80 in 7.0 mi East 3.5 mph - N/A   Mostly Cloudy
6:35 AM 57.2 °F 55.4 °F 94% 29.81 in 7.0 mi Calm Calm - N/A   Scattered Clouds
6:55 AM 57.2 °F 55.4 °F 94% 29.82 in 7.0 mi Calm Calm - N/A   Scattered Clouds
7:15 AM 57.2 °F 55.4 °F 94% 29.82 in 5.0 mi Calm Calm - N/A   Scattered Clouds
7:35 AM 55.4 °F 55.4 °F 100% 29.83 in 4.0 mi Calm Calm - N/A   Clear
7:55 AM 57.2 °F 55.4 °F 94% 29.84 in 4.0 mi Calm Calm - N/A   Clear
8:15 AM 59.0 °F 59.0 °F 100% 29.84 in 7.0 mi East 3.5 mph - N/A   Scattered Clouds
8:35 AM 59.0 °F 59.0 °F 100% 29.85 in 10.0 mi Calm Calm - N/A   Scattered Clouds
8:55 AM 60.8 °F 59.0 °F 94% 29.85 in 10.0 mi Calm Calm - N/A   Clear
9:15 AM 60.8 °F 60.8 °F 100% 29.87 in 7.0 mi Calm Calm - N/A   Clear
9:35 AM 62.6 °F 60.8 °F 94% 29.87 in 5.0 mi Calm Calm - N/A   Scattered Clouds
9:55 AM 62.6 °F 60.8 °F 94% 29.88 in 5.0 mi Calm Calm - N/A   Scattered Clouds
10:15 AM 62.6 °F 60.8 °F 94% 29.88 in 4.0 mi Calm Calm - N/A   Scattered Clouds
10:35 AM 64.4 °F 60.8 °F 88% 29.88 in 7.0 mi Calm Calm - N/A   Clear
10:55 AM 62.6 °F 59.0 °F 88% 29.89 in 4.0 mi WNW 4.6 mph - N/A   Clear
11:15 AM 62.6 °F 59.0 °F 88% 29.90 in 7.0 mi NW 4.6 mph - N/A   Clear
11:35 AM 64.4 °F 59.0 °F 83% 29.90 in 10.0 mi WNW 4.6 mph - N/A   Clear
11:55 AM 64.4 °F 57.2 °F 77% 29.91 in 10.0 mi WNW 5.8 mph - N/A   Clear
12:35 PM 64.4 °F 59.0 °F 83% 29.92 in 5.0 mi WNW 4.6 mph - N/A   Haze
12:55 PM 66.2 °F 59.0 °F 78% 29.92 in 10.0 mi WNW 4.6 mph - N/A   Clear
1:15 PM 64.4 °F 57.2 °F 77% 29.93 in 10.0 mi NW 5.8 mph - N/A   Clear
1:35 PM 66.2 °F 57.2 °F 73% 29.92 in 5.0 mi WNW 5.8 mph - N/A   Haze
1:55 PM 66.2 °F 59.0 °F 78% 29.92 in 7.0 mi WNW 6.9 mph - N/A   Clear
2:15 PM 66.2 °F 57.2 °F 73% 29.92 in 10.0 mi NW 6.9 mph - N/A   Clear
2:35 PM 64.4 °F 55.4 °F 73% 29.93 in 10.0 mi NW 9.2 mph - N/A   Clear
2:55 PM 64.4 °F 59.0 °F 83% 29.93 in 10.0 mi NNW 9.2 mph - N/A   Clear
3:15 PM 62.6 °F 59.0 °F 88% 29.93 in 10.0 mi NW 6.9 mph - N/A   Clear
3:35 PM 64.4 °F 59.0 °F 83% 29.93 in 10.0 mi NW 6.9 mph - N/A   Clear
3:55 PM 64.4 °F 59.0 °F 83% 29.93 in 10.0 mi NW 8.1 mph - N/A   Clear
4:15 PM 66.2 °F 59.0 °F 78% 29.94 in 10.0 mi NNW 6.9 mph - N/A   Clear
4:35 PM 64.4 °F 59.0 °F 83% 29.95 in 10.0 mi NNW 9.2 mph - N/A   Clear
4:55 PM 64.4 °F 59.0 °F 83% 29.95 in 7.0 mi NNW 9.2 mph - N/A   Clear
5:15 PM 64.4 °F 59.0 °F 83% 29.95 in 10.0 mi NNW 8.1 mph - N/A   Clear
5:35 PM 64.4 °F 59.0 °F 83% 29.96 in 10.0 mi NNW 9.2 mph - N/A   Clear
5:55 PM 62.6 °F 59.0 °F 88% 29.96 in 10.0 mi NNW 8.1 mph - N/A   Clear
6:15 PM 62.6 °F 59.0 °F 88% 29.96 in 7.0 mi NNW 8.1 mph - N/A   Clear
6:35 PM 62.6 °F 59.0 °F 88% 29.97 in 7.0 mi NNW 5.8 mph - N/A   Clear
6:55 PM 60.8 °F 59.0 °F 94% 29.97 in 5.0 mi NNW 8.1 mph - N/A   Clear
7:15 PM 60.8 °F 59.0 °F 94% 29.97 in 7.0 mi NNW 5.8 mph - N/A   Clear
7:35 PM 60.8 °F 57.2 °F 88% 29.98 in 5.0 mi North 3.5 mph - N/A   Clear
7:55 PM 59.0 °F 57.2 °F 94% 29.98 in 7.0 mi Calm Calm - N/A   Clear
8:15 PM 59.0 °F 59.0 °F 100% 30.00 in 7.0 mi Calm Calm - N/A   Clear
8:35 PM 59.0 °F 57.2 °F 94% 30.01 in 7.0 mi Calm Calm - N/A   Clear
8:55 PM 57.2 °F 55.4 °F 94% 30.01 in 7.0 mi Calm Calm - N/A   Clear
9:15 PM 57.2 °F 55.4 °F 94% 30.01 in 10.0 mi Calm Calm - N/A   Clear
9:35 PM 55.4 °F 55.4 °F 100% 30.02 in 10.0 mi Calm Calm - N/A   Clear
9:55 PM 55.4 °F 55.4 °F 100% 30.03 in 10.0 mi Calm Calm - N/A   Clear
10:15 PM 55.4 °F 55.4 °F 100% 30.03 in 10.0 mi Calm Calm - N/A   Clear
10:35 PM 55.4 °F 53.6 °F 94% 30.03 in 10.0 mi Calm Calm - N/A   Clear
10:55 PM 55.4 °F 53.6 °F 94% 30.03 in 10.0 mi Calm Calm - N/A   Clear
11:15 PM 55.4 °F 55.4 °F 100% 30.04 in 10.0 mi Calm Calm - N/A   Clear
11:35 PM 53.6 °F 53.6 °F 100% 30.05 in 7.0 mi Calm Calm - N/A   Clear
11:55 PM 53.6 °F 51.8 °F 94% 30.05 in 10.0 mi Calm Calm - N/A   Clear